User: anonymous   Login
Location: Batang Balui
(2.7000°N, 113.7833°E)
Time: 16:13:03
(UTC+00:00)
Language:

METEOR M2 - Orbit

View from above orbital plane
View from above orbital plane
View from above satellite
View from above satellite

Ground track
Ground track

The orbit data is extracted from the following two-line orbital elements,

1 40069U 14037A   23079.11354859  .00000150  00000-0  88640-4 0  9997
2 40069  98.4268  89.2148 0004736 234.0610 126.0130 14.20757365451009
Epoch (UTC): 20 March 2023 02:43:30
Eccentricity: 0.0004736
inclination: 98.4268°
perigee height: 819 km
apogee height: 826 km
right ascension of ascending node: 89.2148°
argument of perigee: 234.0610°
revolutions per day: 14.20757365
mean anomaly at epoch: 126.0130°
orbit number at epoch: 45100

The dashed part of the orbit path shows where the satellite is in the earth's shadow,  

DLR